This is the latest recevied weather packets stored in our database for station/object IA5ITY-13. If no packets are shown the sender has not sent any weather packets the latest 1 day(s).
| Time | Temp. | Humidity | Pressure | Rain* | Wind** | Luminosity | Snow |
|---|---|---|---|---|---|---|---|
| 1777977913 | 22.78° C | 87% | 1011.8 hPa | 0 mm | 0 m/s | - | - |
| 1777977612 | 22.22° C | 85% | 1011.9 hPa | 0 mm | 0 m/s | - | - |
| 1777977308 | 22.78° C | 75% | 1011.7 hPa | 0 mm | 1.34 m/s, 135° | - | - |
| 1777977022 | 25° C | 66% | 1011.6 hPa | 0 mm | 0 m/s | - | - |
| 1777976710 | 25° C | 61% | 1011.6 hPa | 0 mm | 0.45 m/s, 58° | - | - |
| 1777976112 | 25° C | 72% | 1011.9 hPa | 0 mm | 0.45 m/s, 124° | - | - |
| 1777975813 | 22.78° C | 73% | 1012 hPa | 0 mm | 0.45 m/s, 103° | - | - |
| 1777975509 | 22.22° C | 79% | 1011.9 hPa | 0 mm | 0 m/s | - | - |
| 1777975234 | 22.78° C | 72% | 1012 hPa | 0 mm | 0 m/s | - | - |
| 1777974909 | 22.22° C | 73% | 1011.9 hPa | 0 mm | 0 m/s | - | - |
| 1777974613 | 22.78° C | 73% | 1012 hPa | 0 mm | 0 m/s | - | - |
| 1777974313 | 23.89° C | 76% | 1012 hPa | 0 mm | 0 m/s | - | - |
| 1777974013 | 22.78° C | 74% | 1012 hPa | 0 mm | 0 m/s | - | - |
| 1777973710 | 23.89° C | 87% | 1012 hPa | 0 mm | 0 m/s | - | - |
| 1777973424 | 23.89° C | 93% | 1011.9 hPa | 0 mm | 0 m/s | - | - |
| 1777973110 | 23.89° C | 99% | 1011.9 hPa | 0 mm | 0 m/s | - | - |
| 1777972813 | 22.78° C | 99% | 1011.8 hPa | 0 mm | 0 m/s | - | - |
| 1777972513 | 22.22° C | 99% | 1011.8 hPa | 0 mm | 0 m/s | - | - |
| 1777972214 | 21.11° C | 99% | 1011.9 hPa | 0 mm | 0 m/s | - | - |
| 1777971909 | 20° C | 99% | 1011.9 hPa | 0 mm | 0.45 m/s, 29° | - | - |
| 1777971633 | 21.11° C | 99% | 1011.9 hPa | 0 mm | 0 m/s | - | - |
| 1777971309 | 21.11° C | 99% | 1011.8 hPa | 0 mm | 0.45 m/s, 56° | - | - |
| 1777971014 | 20° C | 99% | 1011.8 hPa | 0 mm | 0 m/s | - | - |
| 1777970712 | 18.89° C | 99% | 1012 hPa | 0 mm | 0.45 m/s, 26° | - | - |
| 1777970412 | 18.89° C | 99% | 1011.9 hPa | 0 mm | 0 m/s | - | - |
* Rain latest hour (hover to see other rain measurements)
** Current wind speed in m/s (hover to see current wind gust speed)